Scappoose, OR

4:06 AM PDT on July 28, 2017 (GMT -0700)
Scappoose Industrial

Weather History for KSPB - February, 2013

Change the Weather History Date:

Wednesday, February 20, 2013

  Actual Average Record
Temperature  
Mean Temperature 37 °F -  
Max Temperature 46 °F - 58 °F (2015)
Min Temperature 28 °F - 19 °F (2006)
Degree Days  
Heating Degree Days 28    
Month to date heating degree days 454  
Since 1 July heating degree days 3199  
Cooling Degree Days 0    
Month to date cooling degree days 0  
Year to date cooling degree days 0  
Moisture  
Dew Point 34 °F    
Average Humidity 86    
Maximum Humidity 100    
Minimum Humidity 71    
Precipitation  
Precipitation 0.04 in - 0.72 in (2017)
Month to date precipitation 0.72  
Year to date precipitation 2.76  
Sea Level Pressure  
Sea Level Pressure 30.05 in    
Wind  
Wind Speed 1 mph (SSW)    
Max Wind Speed 8 mph    
Max Gust Speed 13 mph    
Visibility 7 miles    
Events Fog , Rain    
T = Trace of Precipitation, MM = Missing Value Source: NWS Daily Summary

Daily Weather History Graph

Daily Weather History Graph

Search for Another Location

Airport or City:

Trip Planner

Search our weather history database for the weather conditions in past years. The results will help you decide how hot, cold, wet, or windy it might be!

Date:

Astronomy

Feb. 20, 2013 Rise Set
Actual Time 7:05 AM PST 5:45 PM PST
Civil Twilight 6:34 AM PST 6:16 PM PST
Nautical Twilight 6:00 AM PST 6:50 PM PST
Astronomical Twilight 5:25 AM PST 7:25 PM PST
Moon 1:02 PM PST (2/20) 3:38 AM PST (2/20)
Length of Visible Light 11h 41m
Length of Day
10h 40m
Waxing Gibbous, 77% of the Moon is Illuminated
Feb 20
Waxing Gibbous
Feb 25
Full
Mar 4
Last Quarter
Mar 11
New
Mar 19
First Quarter

Hourly Weather History & Observations

Time (PST) Temp. Windchill Dew Point Humidity Pressure Visibility Wind Dir Wind Speed Gust Speed Precip Events Conditions
12:53 AM 36.0 °F - 33.1 °F 89% 30.02 in 10.0 mi Calm Calm - N/A   Clear
1:53 AM 33.1 °F - 32.0 °F 96% 30.03 in 10.0 mi Calm Calm - N/A   Clear
2:39 AM 32.0 °F - 30.2 °F 93% 30.04 in 2.5 mi Calm Calm - N/A   Clear
2:53 AM 32.0 °F - 30.0 °F 92% 30.05 in 10.0 mi Calm Calm - N/A   Clear
3:20 AM 30.2 °F - 28.4 °F 93% 30.06 in 1.8 mi Calm Calm - N/A   Partly Cloudy
3:27 AM 30.2 °F - 28.4 °F 93% 30.06 in 3.0 mi Calm Calm - N/A   Scattered Clouds
3:57 AM 30.2 °F - 28.4 °F 93% 30.06 in 1.8 mi Calm Calm - N/A   Mostly Cloudy
4:03 AM 30.2 °F - 30.2 °F 100% 30.06 in 0.8 mi Calm Calm - N/A   Mostly Cloudy
4:26 AM 30.2 °F 26.7 °F 28.4 °F 93% 30.06 in 1.5 mi NW 3.5 mph - N/A   Mostly Cloudy
4:38 AM 28.4 °F - 28.4 °F 100% 30.07 in 0.5 mi Calm Calm - N/A Fog Light Freezing Fog
4:53 AM 30.9 °F - 30.0 °F 96% 30.07 in 0.8 mi Calm Calm - N/A   Overcast
4:57 AM 30.2 °F - 30.2 °F 100% 30.07 in 1.0 mi Calm Calm - N/A   Overcast
5:18 AM 30.2 °F - 30.2 °F 100% 30.07 in 3.0 mi Calm Calm - N/A   Overcast
5:37 AM 30.2 °F - 30.2 °F 100% 30.08 in 1.8 mi Calm Calm - N/A   Overcast
5:40 AM 30.2 °F - 30.2 °F 100% 30.08 in 2.5 mi Calm Calm - N/A   Overcast
5:53 AM 30.9 °F - 30.0 °F 96% 30.08 in 1.5 mi Calm Calm - N/A   Overcast
6:01 AM 30.2 °F - 28.4 °F 93% 30.08 in 0.8 mi Calm Calm - N/A   Mist
6:26 AM 30.2 °F - 30.2 °F 100% 30.08 in 0.8 mi Calm Calm - N/A   Overcast
6:31 AM 30.2 °F - 30.2 °F 100% 30.08 in 1.0 mi Calm Calm - N/A   Overcast
6:42 AM 30.2 °F - 30.2 °F 100% 30.09 in 3.0 mi Calm Calm - N/A   Overcast
6:53 AM 30.9 °F - 30.0 °F 96% 30.08 in 7.0 mi Calm Calm - N/A   Overcast
7:43 AM 32.0 °F - 30.2 °F 93% 30.09 in 8.0 mi Calm Calm - N/A   Overcast
7:53 AM 32.0 °F - 30.9 °F 96% 30.09 in 8.0 mi Calm Calm - N/A   Overcast
8:53 AM 34.0 °F - 33.1 °F 96% 30.09 in 10.0 mi Calm Calm - N/A   Overcast
9:32 AM 35.6 °F - 33.8 °F 93% 30.09 in 10.0 mi Calm Calm - N/A   Overcast
9:53 AM 35.1 °F - 34.0 °F 96% 30.09 in 10.0 mi Calm Calm - N/A   Overcast
10:53 AM 39.0 °F - 36.0 °F 89% 30.10 in 10.0 mi Calm Calm - N/A   Overcast
11:17 AM 42.8 °F 41.1 °F 37.4 °F 81% 30.09 in 10.0 mi ENE 3.5 mph - N/A   Scattered Clouds
11:53 AM 43.0 °F 41.3 °F 37.9 °F 82% 30.08 in 10.0 mi Variable 3.5 mph - N/A   Partly Cloudy
12:53 PM 44.1 °F - 37.9 °F 79% 30.06 in 10.0 mi Calm Calm - N/A   Mostly Cloudy
1:53 PM 46.0 °F 42.5 °F 37.0 °F 71% 30.03 in 10.0 mi ESE 6.9 mph - N/A   Overcast
2:53 PM 46.0 °F 41.9 °F 37.0 °F 71% 30.01 in 10.0 mi South 8.1 mph - 0.00 in Rain Light Rain
3:11 PM 44.6 °F 42.2 °F 37.4 °F 76% 30.01 in 10.0 mi SSW 4.6 mph - 0.00 in Rain Light Rain
3:27 PM 44.6 °F 43.1 °F 39.2 °F 81% 30.01 in 8.0 mi South 3.5 mph - 0.01 in Rain Light Rain
3:53 PM 44.1 °F 41.5 °F 39.0 °F 82% 30.01 in 7.0 mi SSW 4.6 mph - 0.02 in Rain Light Rain
4:53 PM 44.1 °F - 39.9 °F 85% 30.00 in 10.0 mi Calm Calm - 0.01 in Rain Light Rain
5:53 PM 43.0 °F - 39.0 °F 86% 30.01 in 10.0 mi Calm Calm - 0.01 in   Overcast
6:03 PM 42.8 °F - 39.2 °F 87% 30.01 in 10.0 mi Calm Calm - N/A   Overcast
6:25 PM 42.8 °F - 39.2 °F 87% 30.01 in 10.0 mi Calm Calm - N/A   Overcast
6:33 PM 42.8 °F - 39.2 °F 87% 30.01 in 10.0 mi Calm Calm - N/A   Overcast
6:42 PM 41.0 °F 39.0 °F 39.2 °F 93% 30.02 in 10.0 mi South 3.5 mph - N/A   Overcast
6:53 PM 39.9 °F 37.8 °F 37.9 °F 93% 30.03 in 10.0 mi SSW 3.5 mph - N/A   Overcast
7:45 PM 41.0 °F 38.0 °F 37.4 °F 87% 30.03 in 10.0 mi SSW 4.6 mph - N/A   Overcast
7:53 PM 39.9 °F - 37.0 °F 89% 30.03 in 10.0 mi Calm Calm - N/A   Overcast
8:53 PM 41.0 °F - 36.0 °F 82% 30.04 in 10.0 mi Calm Calm - N/A   Overcast
9:53 PM 37.9 °F - 36.0 °F 93% 30.05 in 10.0 mi Calm Calm - N/A   Overcast
10:11 PM 37.4 °F - 35.6 °F 93% 30.05 in 10.0 mi Calm Calm - N/A   Overcast
10:53 PM 37.9 °F - 36.0 °F 93% 30.07 in 10.0 mi Calm Calm - 0.00 in   Overcast
11:53 PM 39.9 °F 37.8 °F 36.0 °F 86% 30.07 in 10.0 mi SSW 3.5 mph - N/A   Overcast